sat.trackr.live / text

‹ back to catalog

YAOGAN-43 03B

NORAD 61618 · 2024-190B

PAYLOAD ACTIVE UNKNOWN

§ Identity

Operator
Country
PRC
Launch date
2024-10-23
Launch site
XICLF
Launch vehicle
Mass (kg)
RCS (m²)

External: N2YO · Heavens-Above · Gunter

§ Orbital elements

Epoch: 2026-05-24T23:25:49.825632Z

Period
94.55 min
Inclination
34.9889°
Eccentricity
0.0005224
Mean motion
15.22972513 rev/d
Perigee alt
493.3 km
Apogee alt
500.5 km
Semi-major
6,875.0 km
B*
3.2492e-4
RAAN
343.6118°
Arg perigee
155.2768°
Mean anomaly
204.8198°
Rev number
8,832

§ Raw data

YAOGAN-43 03B1 61618U 24190B   26144.97627113  .00007795  00000+0  32492-3 0  99912 61618  34.9889 343.6118 0005224 155.2768 204.8198 15.22972513 88328

JSON: /api/v1/satellites/61618 · /tle

For live sub-satellite position, see the globe view (requires WebGL).

§ Visibility from observer

Set your observer location to see the next 7 days of passes ≥ 10°. The values pass through the URL so the page stays shareable.

No JS? Fill the form by hand. The geolocation button needs JavaScript.